Location: Kielce
(50.8833°N, 20.6167°E)
Time: 22:08:02
(UTC+02:00)

SR - Pass Details

Date: 26 April 2021
Orbit: 573 x 882 km, 66.7° (Epoch: 09 May)

Event Time Altitude Azimuth Distance (km) Brightness Sun altitude
Rises 08:43:00 0° 256° (WSW) 3,410 ? 30.4°
Reaches altitude 10° 08:45:44 10° 267° (W) 2,506 ? 30.9°
Maximum altitude 08:50:52 31° 328° (NNW) 1,512 ? 31.6°
Drops below altitude 10° 08:56:06 10° 29° (NNE) 2,547 ? 32.4°
Sets 08:58:55 0° 40° (NE) 3,475 ? 32.8°
